When you browse on this site, cookies collect data to enhance your experience and personalize the content and advertising you see.
Visit our Privacy Policy to learn more. By continuing to use the site, you agree to this use of cookies and data.
  • în România
  • Lista ţărilor
  • Pe 7 zile
  • Temperatura apei
  • Hartă satelitară
  • Meteo pe hartă
  • Widget-uri
  • user-avatar
    Intrare

    Meteo pe oră la Kaczowice

    Astăzi, 15 Februarie, Vineri

    Timp Temperatura Precipitaţii Vânt Presiune Umiditate
    00:00 +4°C° 0 mm 2 m/s 751 mmHg 96%
    01:00 +5°C° 0 mm 1 m/s 751 mmHg 96%
    02:00 +5°C° 0 mm 1 m/s 751 mmHg 96%
    03:00 +4°C° 0 mm 2 m/s 751 mmHg 96%
    04:00 +4°C° 0 mm 2 m/s 750 mmHg 96%
    05:00 +4°C° 0 mm 2 m/s 750 mmHg 95%
    06:00 +3°C° 0 mm 2 m/s 750 mmHg 95%
    07:00 +3°C° 0 mm 2 m/s 751 mmHg 95%
    08:00 +4°C° 0 mm 2 m/s 751 mmHg 91%
    09:00 +4°C° 0 mm 2 m/s 751 mmHg 87%
    10:00 +5°C° 0 mm 2 m/s 751 mmHg 83%
    11:00 +6°C° 0 mm 2 m/s 750 mmHg 78%
    12:00 +7°C° 0 mm 2 m/s 750 mmHg 72%
    13:00 +8°C° 0 mm 3 m/s 750 mmHg 66%
    14:00 +8°C° 0 mm 3 m/s 750 mmHg 68%
    15:00 +7°C° 0 mm 3 m/s 750 mmHg 69%
    16:00 +7°C° 0 mm 3 m/s 750 mmHg 71%
    17:00 +5°C° 0 mm 3 m/s 750 mmHg 75%
    18:00 +4°C° 0 mm 3 m/s 749 mmHg 80%
    19:00 +3°C° 0 mm 3 m/s 749 mmHg 85%
    20:00 +3°C° 0 mm 3 m/s 749 mmHg 86%
    21:00 +2°C° 0 mm 3 m/s 749 mmHg 87%
    22:00 +3°C° 0 mm 2 m/s 749 mmHg 88%
    23:00 +2°C° 0 mm 2 m/s 749 mmHg 88%

    Mâine, 16 Februarie, Sâmbătă

    Timp Temperatura Precipitaţii Vânt Presiune Umiditate
    00:00 +2°C° 0 mm 2 m/s 749 mmHg 89%
    01:00 +2°C° 0 mm 2 m/s 749 mmHg 89%
    02:00 +2°C° 0 mm 2 m/s 749 mmHg 90%
    03:00 +1°C° 0 mm 2 m/s 749 mmHg 90%
    04:00 +1°C° 0 mm 2 m/s 749 mmHg 90%
    05:00 +1°C° 0 mm 2 m/s 749 mmHg 89%
    06:00 +1°C° 0 mm 2 m/s 748 mmHg 89%
    07:00 +1°C° 0 mm 2 m/s 748 mmHg 88%
    08:00 +3°C° 0 mm 2 m/s 748 mmHg 81%
    09:00 +4°C° 0 mm 2 m/s 748 mmHg 74%
    10:00 +6°C° 0 mm 2 m/s 748 mmHg 67%
    11:00 +7°C° 0 mm 2 m/s 748 mmHg 62%
    12:00 +8°C° 0 mm 2 m/s 748 mmHg 57%
    13:00 +10°C° 0 mm 2 m/s 748 mmHg 52%
    14:00 +10°C° 0 mm 2 m/s 747 mmHg 54%
    15:00 +9°C° 0 mm 2 m/s 747 mmHg 56%
    16:00 +9°C° 0 mm 2 m/s 747 mmHg 58%
    17:00 +8°C° 0 mm 2 m/s 747 mmHg 61%
    18:00 +7°C° 0 mm 2 m/s 747 mmHg 65%
    19:00 +6°C° 0 mm 2 m/s 747 mmHg 69%
    20:00 +5°C° 0 mm 2 m/s 747 mmHg 72%
    21:00 +4°C° 0 mm 3 m/s 747 mmHg 75%
    22:00 +3°C° 0 mm 3 m/s 746 mmHg 78%
    23:00 +3°C° 0 mm 3 m/s 746 mmHg 76%

    Poimâine, 17 Februarie, Duminică

    Timp Temperatura Precipitaţii Vânt Presiune Umiditate
    00:00 +3°C° 0 mm 3 m/s 746 mmHg 74%
    01:00 +3°C° 0 mm 3 m/s 746 mmHg 72%
    02:00 +2°C° 0 mm 3 m/s 746 mmHg 71%
    03:00 +2°C° 0 mm 3 m/s 746 mmHg 70%
    04:00 +2°C° 0 mm 3 m/s 745 mmHg 69%
    05:00 +1°C° 0 mm 3 m/s 745 mmHg 70%
    06:00 +1°C° 0 mm 3 m/s 745 mmHg 70%
    07:00 +1°C° 0 mm 3 m/s 746 mmHg 70%
    08:00 +3°C° 0 mm 3 m/s 746 mmHg 64%
    09:00 +4°C° 0 mm 3 m/s 746 mmHg 59%
    10:00 +7°C° 0 mm 3 m/s 746 mmHg 53%
    11:00 +8°C° 0 mm 3 m/s 746 mmHg 50%
    12:00 +9°C° 0 mm 3 m/s 745 mmHg 46%
    13:00 +11°C° 0 mm 3 m/s 745 mmHg 43%
    14:00 +10°C° 0 mm 3 m/s 745 mmHg 46%
    15:00 +10°C° 0 mm 3 m/s 745 mmHg 49%
    16:00 +9°C° 0 mm 2 m/s 745 mmHg 51%
    17:00 +8°C° 0 mm 2 m/s 745 mmHg 56%
    18:00 +7°C° 0 mm 2 m/s 745 mmHg 60%
    19:00 +6°C° 0 mm 2 m/s 745 mmHg 64%
    20:00 +5°C° 0 mm 2 m/s 745 mmHg 67%
    21:00 +6°C° 0 mm 1 m/s 745 mmHg 70%
    22:00 +5°C° 0 mm 1 m/s 745 mmHg 73%
    23:00 +5°C° 0 mm 1 m/s 745 mmHg 75%

    18 Februarie, Luni

    Timp Temperatura Precipitaţii Vânt Presiune Umiditate
    00:00 +4°C° 0 mm 1 m/s 745 mmHg 77%
    01:00 +4°C° 0 mm 1 m/s 745 mmHg 79%
    02:00 +4°C° 0 mm 1 m/s 745 mmHg 80%
    03:00 +3°C° 0 mm 1 m/s 744 mmHg 81%
    04:00 +3°C° 0 mm 1 m/s 744 mmHg 81%
    05:00 +3°C° 0 mm 1 m/s 744 mmHg 81%
    06:00 +2°C° 0 mm 0 m/s 744 mmHg 80%
    07:00 +2°C° 0 mm 0 m/s 744 mmHg 79%
    08:00 +3°C° 0 mm 0 m/s 744 mmHg 73%
    09:00 +4°C° 0 mm 0 m/s 745 mmHg 67%
    10:00 +7°C° 0 mm 1 m/s 745 mmHg 61%
    11:00 +8°C° 0 mm 1 m/s 744 mmHg 58%
    12:00 +9°C° 0 mm 1 m/s 744 mmHg 54%
    13:00 +9°C° 0 mm 2 m/s 744 mmHg 51%
    14:00 +9°C° 0 mm 2 m/s 744 mmHg 53%
    15:00 +8°C° 0 mm 2 m/s 744 mmHg 55%
    16:00 +8°C° 0 mm 2 m/s 743 mmHg 57%
    17:00 +7°C° 0 mm 2 m/s 743 mmHg 62%
    18:00 +6°C° 0 mm 2 m/s 743 mmHg 68%
    19:00 +5°C° 0 mm 2 m/s 743 mmHg 73%
    20:00 +4°C° 0 mm 2 m/s 743 mmHg 76%
    21:00 +4°C° 0 mm 2 m/s 743 mmHg 80%
    22:00 +4°C° 0 mm 1 m/s 743 mmHg 83%
    23:00 +4°C° 0 mm 1 m/s 743 mmHg 83%

    19 Februarie, Marţi

    Timp Temperatura Precipitaţii Vânt Presiune Umiditate
    00:00 +4°C° 0 mm 1 m/s 743 mmHg 83%
    01:00 +3°C° 0 mm 1 m/s 743 mmHg 84%
    02:00 +3°C° 0 mm 1 m/s 743 mmHg 82%
    03:00 +3°C° 0 mm 1 m/s 742 mmHg 81%
    04:00 +3°C° 0 mm 1 m/s 742 mmHg 79%
    05:00 +3°C° 0 mm 1 m/s 742 mmHg 77%
    06:00 +3°C° 0 mm 1 m/s 742 mmHg 74%
    07:00 +2°C° 0 mm 2 m/s 742 mmHg 71%
    08:00 +4°C° 0 mm 2 m/s 742 mmHg 64%
    09:00 +5°C° 0 mm 2 m/s 742 mmHg 57%
    10:00 +7°C° 0 mm 2 m/s 742 mmHg 50%
    11:00 +8°C° 0 mm 3 m/s 741 mmHg 49%
    12:00 +9°C° 0 mm 3 m/s 741 mmHg 47%
    13:00 +11°C° 0 mm 4 m/s 741 mmHg 45%
    14:00 +10°C° 0 mm 4 m/s 740 mmHg 48%
    15:00 +10°C° 0 mm 3 m/s 740 mmHg 52%
    16:00 +10°C° 0 mm 3 m/s 740 mmHg 55%
    17:00 +8°C° 0 mm 4 m/s 740 mmHg 61%
    18:00 +6°C° 0 mm 4 m/s 740 mmHg 67%
    19:00 +5°C° 0 mm 4 m/s 740 mmHg 73%
    20:00 +5°C° 0 mm 5 m/s 740 mmHg 74%
    21:00 +3°C° 0 mm 5 m/s 740 mmHg 75%
    22:00 +3°C° 0 mm 5 m/s 741 mmHg 76%
    23:00 +3°C° 0 mm 5 m/s 741 mmHg 76%

    20 Februarie, Miercuri

    Timp Temperatura Precipitaţii Vânt Presiune Umiditate
    00:00 +3°C° 0 mm 5 m/s 741 mmHg 76%
    01:00 +3°C° 0 mm 5 m/s 741 mmHg 76%
    02:00 +3°C° 0 mm 5 m/s 741 mmHg 81%
    03:00 +3°C° 0 mm 4 m/s 741 mmHg 85%
    04:00 +1°C° 0 mm 4 m/s 741 mmHg 90%
    05:00 +1°C° 0 mm 4 m/s 742 mmHg 91%
    06:00 +1°C° 0 mm 4 m/s 742 mmHg 91%
    07:00 +1°C° 0 mm 4 m/s 742 mmHg 92%
    08:00 +2°C° 0 mm 5 m/s 743 mmHg 85%
    09:00 +3°C° 0 mm 5 m/s 743 mmHg 78%
    10:00 +4°C° 0 mm 6 m/s 743 mmHg 70%
    11:00 +5°C° 0 mm 6 m/s 743 mmHg 65%
    12:00 +7°C° 0 mm 6 m/s 743 mmHg 60%
    13:00 +8°C° 0 mm 7 m/s 743 mmHg 56%
    14:00 +7°C° 0 mm 6 m/s 743 mmHg 55%
    15:00 +7°C° 0 mm 6 m/s 743 mmHg 55%
    16:00 +7°C° 0 mm 5 m/s 743 mmHg 55%
    17:00 +6°C° 0 mm 4 m/s 743 mmHg 59%
    18:00 +5°C° 0 mm 4 m/s 743 mmHg 63%
    19:00 +4°C° 0 mm 3 m/s 744 mmHg 67%
    20:00 +4°C° 0 mm 3 m/s 744 mmHg 68%
    21:00 +4°C° 0 mm 3 m/s 744 mmHg 70%
    22:00 +4°C° 0 mm 4 m/s 744 mmHg 71%
    23:00 +3°C° 0 mm 4 m/s 744 mmHg 74%
    Arată mai mult